Wind_Speed
8 8 20 28 20 7 10 14 10 8 3 6 7 8 18 16 8 11 13 13 14 11 4 10 21 26 30 35 36 31 26 21 19 13 11 7 4 7 9 10 10 11 9 9
6 28 20 14 16 19 12 15 14 16 6 5 11 12 16 17 13 11 15 16 11 6 3 4 14 21 29 35 34 29 25 21 16 11 6 2 4 6 8 8 7 8 9 9
27 27 15 17 19 17 19 21 19 18 4 4 7 11 15 14 7 7 10 11 8 8 7 6 8 17 23 30 32 27 23 18 13 8 4 1 4 3 3 3 2 5 6 6
19 25 21 16 23 18 24 16 16 14 1 4 4 6 13 15 13 8 11 7 8 4 5 7 10 12 23 29 28 24 20 17 12 7 3 1 1 2 3 4 5 6 4 3
13 19 30 22 23 22 13 13 13 9 5 3 2 5 6 4 11 12 10 11 7 6 9 11 12 19 25 29 27 23 20 16 11 6 3 1 2 2 4 5 6 5 4 2
9 5 19 23 14 18 8 6 5 3 2 6 9 7 7 6 15 7 7 3 2 7 8 9 14 23 24 24 24 23 18 15 10 7 3 1 1 2 4 5 6 5 1 4
5 9 2 11 7 6 9 8 1 2 2 5 5 8 15 9 10 11 11 6 6 6 12 14 16 13 20 24 24 21 16 14 11 7 3 1 1 2 4 6 6 4 0 5
7 5 13 10 9 11 22 13 7 8 4 4 10 8 6 20 19 11 8 4 9 9 8 13 13 13 18 24 26 20 15 14 11 9 5 1 0 4 5 5 4 5 3 5
9 7 5 17 8 18 7 15 9 4 2 2 5 6 6 9 8 8 7 7 9 9 9 12 11 16 19 24 25 20 16 13 11 10 5 3 1 4 4 3 4 3 3 5
5 2 8 14 8 18 14 11 6 3 6 4 5 4 5 6 7 4 5 8 7 7 9 12 10 14 20 27 25 19 17 14 12 9 6 3 2 3 4 3 4 4 2 5
5 1 2 10 17 13 4 10 3 6 5 5 1 6 7 7 8 8 8 8 10 13 12 13 10 15 22 26 23 20 17 13 12 9 6 3 2 2 4 4 4 4 3 6
3 3 3 15 6 19 14 9 9 8 10 2 3 5 4 8 6 4 8 10 8 8 11 11 11 14 19 23 22 20 17 15 13 9 6 5 3 2 5 5 6 5 5 9
8 4 2 3 5 3 23 14 8 6 4 13 4 5 2 4 2 4 8 9 10 10 9 8 8 10 14 21 23 20 19 17 13 9 9 8 4 3 5 7 8 7 7 10
8 3 3 6 2 4 14 15 15 6 4 7 20 4 7 6 6 7 8 8 8 9 11 11 9 9 13 20 24 21 20 18 15 12 11 9 6 5 5 8 9 7 7 10
6 4 3 10 11 8 5 19 18 24 19 7 6 7 7 9 10 10 9 9 11 11 12 12 12 10 11 17 22 21 21 19 17 14 12 9 8 8 7 10 10 9 8 11
5 4 8 5 12 8 10 8 20 22 17 15 6 8 8 4 6 6 12 13 12 13 13 13 12 11 11 18 22 24 23 22 19 16 13 12 12 9 9 9 11 10 9 12
3 3 5 5 10 8 8 20 9 13 18 13 11 16 5 4 7 9 10 14 16 15 15 16 15 14 17 21 26 26 26 24 22 18 16 15 13 11 9 8 9 9 9 11
5 4 2 4 5 6 6 7 14 13 7 13 7 7 9 9 12 9 12 16 14 14 14 14 13 14 20 24 29 30 26 25 24 21 18 16 14 14 12 10 9 9 8 9
10 4 3 2 3 6 5 7 6 3 10 8 11 12 8 7 5 4 9 9 19 20 18 15 23 25 24 29 32 31 26 25 25 24 20 18 16 17 16 12 8 7 9 11
10 8 3 1 2 5 1 12 11 7 6 11 11 9 7 7 6 7 11 9 9 10 11 14 22 22 27 28 33 31 26 25 24 28 24 21 19 19 18 15 11 10 11 13
5 4 8 6 3 6 10 18 10 7 4 17 13 11 10 6 9 13 12 12 14 16 16 24 24 25 28 32 33 25 26 25 30 30 26 23 21 20 18 17 14 15 15 14
3 4 3 3 3 5 13 6 7 7 8 10 12 10 13 15 13 5 13 14 14 15 16 22 21 21 27 34 32 25 26 34 29 29 29 25 23 22 20 19 16 16 17 17
2 2 2 2 3 4 8 5 6 4 10 9 14 15 14 15 13 9 9 10 14 17 16 27 24 21 27 35 33 27 31 33 30 29 31 28 26 24 22 23 21 18 18 18
0 4 3 2 2 12 15 8 6 11 14 16 14 16 14 15 13 12 6 9 12 13 14 23 23 20 22 32 35 35 35 36 33 31 32 30 29 26 24 24 23 21 19 19
2 2 0 5 6 13 2 12 14 19 19 19 19 16 14 11 15 12 8 8 13 14 16 25 22 21 25 31 31 32 35 37 33 31 31 31 30 30 27 26 26 26 23 22
3 2 1 2 6 6 10 13 18 17 18 20 17 18 15 9 11 8 8 10 10 14 18 18 22 21 24 30 30 35 38 40 36 28 29 29 30 31 30 29 25 26 25 25
Wind_Direction
173 195 216 209 207 193 201 231 240 244 193 226 238 259 273 281 250 261 269 269 273 264 223 176 176 175 168 169 172 170 173 183 190 200 218 233 260 286 288 279 262 265 275 264
168 219 216 190 192 208 203 225 239 269 228 207 278 275 284 285 271 250 266 275 267 245 191 130 146 150 158 163 164 164 171 180 188 204 209 236 293 294 299 295 269 266 278 269
201 225 200 186 192 198 217 219 233 244 21 289 313 295 286 282 262 265 257 255 263 257 194 139 131 141 144 152 162 167 169 176 184 190 174 250 292 308 320 321 290 297 300 273
229 231 190 195 209 190 218 210 233 250 216 242 108 286 289 301 299 265 288 284 266 180 130 142 135 134 145 158 164 165 168 174 173 159 155 247 4 10 320 307 302 308 303 262
210 193 211 207 198 192 228 194 215 241 230 242 204 273 257 294 289 280 280 279 276 152 157 147 147 143 153 162 165 166 168 173 165 156 173 156 69 12 338 337 313 309 303 205
202 204 200 214 198 200 164 93 58 49 115 247 231 202 246 216 236 257 262 285 71 128 124 122 137 143 153 164 163 166 173 172 167 175 176 133 91 28 13 352 328 323 284 183
167 231 250 159 132 151 142 119 211 299 261 229 202 196 245 265 240 231 252 242 140 151 143 149 153 149 151 165 169 170 174 172 180 182 189 191 294 333 357 353 336 350 136 182
162 193 194 180 180 169 182 168 161 188 206 234 207 213 239 224 241 242 253 183 146 150 167 155 154 147 160 169 170 171 172 179 183 188 191 178 241 1 347 346 9 44 94 158
189 231 165 180 170 166 188 210 164 133 209 121 234 272 288 220 213 220 190 150 163 156 163 154 155 155 165 171 173 174 180 183 185 192 188 185 61 353 359 359 44 40 114 148
261 179 206 193 152 192 179 148 171 198 193 225 280 274 221 183 220 250 192 181 160 142 150 155 163 159 172 174 177 180 186 185 188 190 191 186 50 13 28 47 67 61 113 169
346 164 293 141 200 169 134 179 136 159 149 169 201 260 218 198 197 200 210 177 164 166 165 164 165 168 173 178 182 186 190 190 190 190 192 174 99 40 36 62 78 61 70 154
314 306 211 214 147 198 203 178 164 196 191 183 152 279 243 231 217 233 187 157 159 155 161 162 164 155 167 179 186 192 194 197 193 189 191 156 130 118 57 73 71 66 92 131
345 312 137 17 262 202 200 198 161 107 113 204 147 246 332 286 264 251 184 154 151 153 148 147 150 162 172 181 190 195 198 198 190 187 182 155 146 136 75 92 80 68 108 126
329 272 258 199 258 107 204 201 200 153 159 164 219 213 240 265 215 191 148 143 143 154 158 164 165 169 176 183 191 198 198 194 185 178 174 158 160 140 94 107 100 80 109 128
353 274 265 276 273 306 325 203 200 211 215 185 185 205 242 237 211 198 149 129 144 161 170 174 174 173 172 179 192 200 193 190 187 178 173 163 152 137 113 112 118 104 116 124
325 289 348 302 286 270 270 255 217 211 218 222 188 249 210 277 98 157 163 157 171 178 180 177 177 173 174 181 190 198 191 191 188 182 171 157 149 144 140 115 115 120 123 128
181 310 353 294 341 313 254 239 227 224 215 187 194 224 164 200 205 194 169 176 179 183 182 182 181 181 179 183 187 196 193 192 189 184 173 166 156 151 150 142 121 126 140 152
187 154 238 269 319 206 251 189 199 213 228 231 248 184 193 211 220 193 189 182 174 179 186 181 178 179 183 184 188 197 195 191 191 187 179 174 163 153 152 145 132 122 127 145
204 129 261 228 266 289 316 46 2 156 240 189 207 233 230 219 79 274 212 183 184 183 185 181 176 179 176 181 188 193 193 193 191 190 186 180 172 160 159 154 142 127 126 125
204 204 214 267 230 229 278 323 315 255 218 7 349 301 191 145 164 232 187 181 166 164 168 168 167 169 172 180 185 183 188 187 188 194 191 185 179 170 165 161 149 141 132 133
94 136 199 225 273 286 344 323 312 141 294 328 328 317 301 204 203 212 176 187 177 171 165 162 163 169 178 179 179 175 184 190 201 197 192 187 185 178 173 166 157 150 140 133
118 168 181 198 236 273 0 12 54 275 298 308 310 308 297 293 289 205 181 182 153 157 152 165 164 172 171 179 176 175 186 203 201 197 191 189 188 184 178 171 164 160 153 144
154 193 127 251 287 328 325 302 272 276 305 308 309 304 295 285 275 257 192 162 170 169 170 171 171 163 168 178 182 179 194 198 198 195 192 191 189 188 185 178 172 170 170 164
72 178 211 268 23 325 307 313 306 324 323 314 311 303 295 279 271 251 236 164 169 171 167 169 161 169 173 179 185 194 190 194 194 192 194 192 188 188 190 189 186 183 181 180
288 282 217 275 311 321 198 338 330 322 321 325 326 319 303 288 267 228 203 188 174 171 160 167 173 177 180 178 184 187 190 188 185 190 193 193 192 190 190 196 195 197 199 197
204 199 249 266 260 277 284 307 321 321 319 324 323 319 321 305 290 211 200 179 175 168 165 170 176 174 173 177 179 183 189 188 182 180 188 191 191 193 194 195 200 209 212 209
Height
741 754 739 727 733 740 746 754 755 741 737 745 745 744 727 714 718 715 706 699 693 690 685 685 688 693 702 708 717 722 732 739 743 745 746 745 743 743 743 742 742 741 741 741
743 726 718 724 731 737 743 749 750 734 735 741 740 740 725 714 710 706 699 691 689 687 686 688 690 693 699 706 714 724 729 737 741 743 742 741 741 741 740 739 738 739 738 737
715 692 711 719 726 736 737 740 741 739 740 735 739 738 728 706 701 697 692 687 683 685 687 692 693 697 703 710 718 725 729 735 739 739 739 740 740 740 739 738 737 737 736 734
713 703 706 714 717 720 734 725 730 737 750 768 737 767 734 715 707 697 684 681 679 681 691 693 695 700 706 714 719 725 729 734 736 736 738 739 739 738 738 737 736 735 734 733
697 695 703 705 704 710 717 715 727 737 750 753 747 765 731 718 713 697 684 677 676 683 689 692 696 700 707 714 718 724 729 733 734 735 738 738 737 737 737 736 735 734 733 733
690 682 689 688 695 702 709 722 736 744 754 767 749 757 727 724 702 692 680 674 681 687 692 695 699 702 709 716 720 724 728 731 733 735 737 737 737 737 736 735 733 732 732 732
694 692 682 683 702 705 716 738 770 772 772 765 732 749 714 700 691 682 678 676 686 693 690 694 698 703 710 715 720 723 727 729 732 735 736 736 736 736 735 734 733 732 731 733
701 708 685 675 685 701 708 723 748 766 765 745 719 733 711 680 670 672 671 673 685 691 694 693 699 703 710 715 718 722 726 729 732 734 735 735 735 735 734 734 733 732 732 733
690 690 665 666 671 681 711 717 716 732 731 743 725 705 682 674 672 672 675 679 686 690 694 694 699 702 709 714 717 720 725 728 731 733 734 735 735 735 735 734 733 732 732 733
675 687 663 666 669 672 682 696 725 732 742 745 723 709 697 673 666 667 673 678 685 691 693 695 700 703 709 712 716 721 724 727 730 732 733 734 734 735 735 734 733 733 733 734
684 679 670 666 667 679 696 696 706 710 732 740 736 717 678 664 661 666 670 676 684 686 689 693 699 703 707 712 717 720 724 727 729 731 733 734 734 735 735 734 733 734 734 734
699 695 681 670 657 657 665 680 687 698 715 720 721 713 659 659 657 661 663 671 682 685 687 692 697 702 707 711 716 719 723 726 729 731 732 734 735 735 736 734 734 734 734 734
704 702 692 679 669 661 663 666 677 694 705 710 721 712 657 657 653 661 667 671 678 684 689 694 698 702 706 710 714 718 722 725 728 730 732 734 735 736 737 736 735 735 735 736
705 709 700 681 671 665 671 668 670 686 710 707 683 681 663 659 662 665 665 672 678 682 687 691 696 700 704 708 712 717 720 724 727 730 733 735 735 737 738 737 736 736 737 738
714 718 700 689 678 675 667 660 664 668 672 688 679 678 665 660 658 658 660 672 678 682 685 688 693 698 703 707 711 715 719 723 726 729 733 735 736 738 739 737 737 738 739 741
719 718 705 691 667 669 671 664 657 659 664 670 669 672 653 648 654 658 657 666 672 677 679 684 689 694 700 704 708 713 717 721 725 729 732 735 736 738 740 740 740 741 742 743
718 721 714 703 685 678 673 651 659 657 650 660 674 649 651 652 654 655 657 657 661 668 671 676 682 688 695 699 704 710 714 720 724 728 731 735 737 739 741 742 742 742 743 745
708 713 714 709 693 682 646 629 638 652 648 648 647 645 645 643 639 640 639 644 654 660 667 672 678 685 690 696 701 707 713 718 723 727 731 735 737 739 742 743 744 745 745 747
700 707 712 707 697 666 641 655 659 648 651 645 646 639 639 636 640 640 637 634 637 644 652 659 668 677 685 691 697 705 711 716 721 725 730 734 737 738 741 744 746 747 747 748
697 703 702 705 698 674 665 658 653 657 657 662 660 647 639 640 655 642 628 630 638 645 651 658 665 674 681 688 694 702 708 714 718 722 727 732 736 739 741 743 746 748 750 751
702 712 709 706 704 679 670 655 646 653 672 665 662 656 654 636 622 609 615 623 628 634 644 653 662 668 675 683 691 698 705 709 713 720 726 731 735 738 741 744 747 750 752 754
691 695 704 702 697 680 670 659 672 681 671 666 661 656 651 640 622 613 612 616 626 633 643 651 657 665 671 679 687 694 700 704 711 717 723 728 733 737 741 744 748 751 753 756
696 696 697 697 683 675 676 675 672 672 671 663 658 650 646 637 627 617 612 615 620 626 634 641 650 660 667 674 681 687 693 701 708 715 720 725 731 736 740 743 747 751 754 757
695 698 694 694 674 678 672 668 668 668 664 658 652 644 638 630 623 614 613 610 617 623 630 638 647 655 661 667 674 679 687 696 704 711 717 722 728 733 739 743 746 750 753 757
704 699 696 693 680 674 665 668 668 662 657 650 644 638 630 624 615 609 608 611 610 617 625 632 639 646 652 660 668 675 683 691 699 707 713 719 725 730 735 741 744 748 751 754
699 696 695 692 686 686 677 670 668 663 656 650 645 634 624 620 611 603 601 601 608 613 620 628 634 642 649 656 662 669 677 684 692 702 709 715 720 726 731 736 742 746 750 753